CHIBUOYS 000
TTAA00 KLOT 202315

MARINE OBSERVATIONS FOR LAKE MICHIGAN
NATIONAL WEATHER SERVICE CHICAGO/ROMEOVILLE IL
600 PM CDT WED AUG 20 2014


...COASTAL INLAND STATIONS ETC...
  
CITY           SKY/WX    TMP DP  RH WIND       PRES   REMARKS
GARY AIRPORT   MOSUNNY   86  64  48 W12       29.88R HX  87           
CHICAGO MIDWAY PTSUNNY   85  66  53 SW13      29.88R HX  87           
WHEELING       MOSUNNY   85  64  49 W9        29.88S HX  86           
WAUKEGAN       MOSUNNY   82  66  58 VRB5      29.87R HX  84           
KENOSHA        MOSUNNY   81  68  64 W6        29.88R HX  84           
RACINE         MOSUNNY   73  67  81 E9        29.90R                  
MILWAUKEE      PTSUNNY   73  65  75 E9        29.88R                  
BENTON HARBOR  SUNNY     81  65  58 W5        29.87F HX  83           

...BUOY REPORTS...
  
STATION/POSITION SKY/WX   TEMP    WIND        VSBY  WAVE
                          AIR SEA DIR/SP/G          HT/PER
                          (F)     (DEG/KT/KT) (MI)  (FT/S)
45002 45.3N 86.4           63 63  210/  8/  8         1
45007 42.7N 87.0           70 69   80/  8/  8         0
45170 41.8N 87.0           77 74  230/  2/  6         1/ 3
45029 42.9N 86.3           72 69  350/  2/  2         1
45161 43.2N 86.4 NOT AVBL
45024 44.0N 86.6           65 56  150/  2/  4         1

...LAKESIDE REPORTS...
  
STATION/POSITION SKY/WX   TEMP    WIND        VSBY  WAVE
                          AIR SEA DIR/SP/G          HT/PER
                          (F)     (DEG/KT/KT) (MI)  (FT/S)
WAUKEGAN HARBOR            83     240/  9/ 10
CHICAGO CRIB               83     250/ 12/ 14
BURNHAM HARBOR             84     230/  4/ 11
CALUMET                    84     240/  7/ 11
BURNS HARBOR               83     220/ 10/ 13
MICHIGAN CITY              79     240/  6/  7
ST. JOSEPH                 85        CALM
SOUTH HAVEN                81      10/  5/  6
HOLLAND          NOT AVBL
MUSKEGON                   71     320/  3/  3
LUDINGTON                  68     250/  2/  4
BIG SABLE LIGHT            69     320/  4/  6
MANISTEE HARBOR  NOT AVBL
GRAND TRAVERSE L           64     260/  6/  6
MACKINAW CITY    NOT AVBL
NAUBINWAY        NOT AVBL
PORT INLAND                66     340/  4/  7
FAIRPORT         NOT AVBL
NORTHPORT PIER             65     150/  3/  5
SISTER BAY                        300/  6/  7
ALGOMA           NOT AVBL
KEWAUNEE         NOT AVBL
SHEBOYGAN                  67 66  150/  3/  4
PORT WASHINGTON  NOT AVBL
MILWAUKEE                  70      70/  6/  7
KENOSHA                    73     160/  5/  8
$$
  

USA.gov is the U.S. government's official web portal to all federal, state and local government web resources and services.
  • Web Site Owner:
  • National Weather Service
  • Chicago, IL Weather Forecast Office
  • 333 West University Drive
  • Romeoville, IL 60446
  • 815-834-1435 8am-8pm
  • Page Author: LOT Webmaster
  • Web Master's E-mail: w-lot.webmaster@noaa.gov
  • Page last modified: 2-Sep-2010 4:41 PM UTC